Location: Cappavuse
(53.3394°N, 8.0600°W)
Time: 05:52:02
(UTC+00:00)

Daily predictions for brighter satellites

Satellite Brightness Start Highest point End
(mag) Time Altitude Azimuth Time Altitude Azimuth Time Altitude Azimuth
Cosmos 1758 Rocket 3.8 00:02:25 10° N 00:06:37 57° ENE 00:06:37 57° ENE
Cosmos 1624 Rocket 3.8 00:06:04 69° SSW 00:06:44 89° ESE 00:11:56 10° NNE
Cosmos 1603 4.4 00:04:46 24° WSW 00:08:04 51° NW 00:13:38 10° NNE
ATLAS 2AS CENTAUR R/B 2.8 00:09:46 49° SSE 00:10:50 53° SE 00:17:25 10° NE
Helios 1B rocket 4.4 00:13:20 16° WNW 00:13:20 16° WNW 00:14:59 10° NW
Cosmos 1782 3.5 00:16:32 46° N 00:16:32 46° N 00:19:08 10° N
Meteor 1-20 Rocket 4.3 00:11:32 10° N 00:16:59 65° ENE 00:18:03 53° SE
ALOS 2 3.1 00:20:07 48° W 00:20:07 48° W 00:24:12 10° NNW
Meteor 1-22 4.4 00:15:22 10° NNW 00:20:46 84° ENE 00:21:31 67° SSE
SeaSat 1 3.6 00:21:51 30° WSW 00:21:51 30° WSW 00:25:57 10° NW
Cosmos 1980 Rocket 2.4 00:16:55 10° NNW 00:22:39 69° NE 00:24:19 46° ESE
Cosmos 1110 Rocket 4.1 00:23:00 58° ESE 00:23:14 58° ESE 00:28:27 10° NNE
ARIANE 5 R/B 3.6 00:27:01 34° W 00:27:01 34° W 00:30:48 10° NNW
USA 234 3.6 00:23:24 10° ENE 00:29:53 66° N 00:36:22 10° W
PSLV R/B 3.5 00:26:46 10° NNE 00:30:44 72° NW 00:30:44 72° NW
Cosmos 2369 4.4 00:28:14 10° NNW 00:33:48 51° NE 00:36:37 28° ESE
Cosmos 292 Rocket 4.1 00:30:01 10° NW 00:34:25 50° W 00:34:25 50° W
Cosmos 1602 Rocket 3.6 00:32:12 10° N 00:36:24 66° ENE 00:36:24 66° ENE
Cosmos 2233 Rocket 4.4 00:39:26 39° SW 00:41:27 55° WNW 00:47:36 10° N
Cosmos 968 Rocket 4.3 00:44:03 10° NW 00:48:45 37° WSW 00:48:45 37° WSW
Cosmos 2360 Rocket 4.3 00:44:18 10° NNW 00:48:55 25° NE 00:53:32 10° E
Cosmos 2333 Rocket 3.8 00:45:13 10° NNW 00:50:20 33° NE 00:55:26 10° ESE
Cosmos 2228 3.7 00:51:26 42° WNW 00:51:27 42° WNW 00:55:27 10° N
Cosmos 1933 3.7 00:53:32 54° NE 00:53:32 54° NE 00:56:40 10° NNE
Cosmos 1741 Rocket 4.2 00:47:48 10° NNW 00:52:57 53° WSW 00:53:07 52° WSW
Cosmos 1805 4.2 00:50:53 10° N 00:53:08 37° NNE 00:53:08 37° NNE
ARGOS Delta rocket 4.0 00:50:49 10° N 00:55:15 58° WNW 00:55:38 56° W
USA 281 4.2 00:51:48 10° ESE 00:57:56 44° NE 01:04:06 10° NNW
Cosmos 1626 Rocket 4.3 00:54:50 10° NNW 00:58:29 41° WNW 00:58:29 41° WNW
Cosmos 1452 Rocket 3.4 00:58:56 68° SSE 00:59:28 76° ESE 01:04:43 10° NNE
Cosmos 2082 Rocket 3.1 00:59:24 32° ESE 01:00:08 34° ESE 01:05:13 10° NE
Cosmos 1833 Rocket 2.8 01:00:04 49° WSW 01:01:31 70° NW 01:07:10 10° NNE
Nadezhda 4 Rocket 3.9 00:56:19 10° N 01:02:31 87° W 01:04:04 54° S
Landsat 5 3.5 00:59:39 10° NNE 01:03:47 77° ENE 01:03:47 77° ENE
Cosmos 2098 Rocket 3.7 01:03:15 57° SSE 01:04:20 72° E 01:09:55 10° NNE
Cosmos 2322 Rocket 4.0 00:59:36 10° NNW 01:04:31 29° NE 01:09:25 10° E
Cosmos 1867 3.5 01:06:15 64° S 01:06:51 71° SE 01:12:18 10° NE
Cosmos 1464 Rocket 3.9 01:13:31 53° S 01:15:06 90° NW 01:21:16 10° N
CZ-2C R/B 3.3 01:10:15 10° N 01:15:24 64° WNW 01:16:33 51° WSW
ACS3 Solar Sail 2.4 01:10:45 10° NNE 01:16:32 45° E 01:18:33 34° SE
Cosmos 1606 Rocket 3.6 01:18:01 64° ESE 01:18:10 64° E 01:22:32 10° NNE
Cosmos 2219 Rocket 4.3 01:13:40 10° NNW 01:18:17 25° NE 01:22:54 10° E
SL-16 R/B 3.0 01:14:28 10° NNW 01:20:00 50° NE 01:24:53 13° ESE
Cosmos 2195 Rocket 4.4 01:13:52 10° N 01:20:15 89° E 01:22:15 47° S
Okean 1-7 Rocket 3.5 01:16:54 10° NNW 01:21:12 73° W 01:21:12 73° W
Cosmos 1437 Rocket 3.2 01:22:27 51° N 01:22:27 51° N 01:25:09 10° NNE
CZ-4C R/B 2.6 01:22:06 36° ESE 01:22:06 36° ESE 01:26:50 10° NE
Cosmos 1072 Rocket 4.4 01:20:23 51° SSW 01:22:01 77° WNW 01:28:16 10° N
GP-B 3.7 01:18:35 10° NNE 01:22:49 45° E 01:23:25 42° ESE
Timation 1 Rocket 4.3 01:23:15 52° SSW 01:24:50 90° W 01:30:55 10° NE
ATLAS 3B R/B 3.1 01:20:05 10° NW 01:27:34 51° WSW 01:29:24 43° SSW
Cosmos 2151 4.2 01:24:53 10° NNW 01:28:00 29° WNW 01:28:00 29° WNW
CZ-2C R/B 3.3 01:30:23 38° WSW 01:30:54 39° W 01:35:59 10° NNW
Cosmos 1076 Rocket 3.3 01:28:26 10° N 01:32:47 90° ENE 01:32:57 83° SSE
Cosmos 2026 Rocket 3.9 01:26:33 10° N 01:32:51 89° W 01:35:02 44° S
Cosmos 2058 Rocket 4.1 01:32:04 32° ESE 01:32:52 35° E 01:36:53 10° NNE
Cosmos 2237 4.1 01:30:30 10° NW 01:36:16 80° WSW 01:38:02 46° SSE
Okean 1 3.5 01:37:01 57° NE 01:37:01 57° NE 01:40:04 10° NNE
Cosmos 2034 Rocket 4.0 01:34:39 47° S 01:36:41 89° E 01:43:07 10° N
Cosmos 909 Rocket 4.3 01:37:59 43° S 01:39:41 55° ESE 01:45:54 10° NE
Cosmos 1302 Rocket 3.9 01:41:05 58° SW 01:42:07 83° WNW 01:47:20 10° NNE
PSLV R/B 3.8 01:39:57 10° NNE 01:43:44 68° E 01:43:44 68° E
Cosmos 1726 Rocket 3.3 01:44:06 77° SSE 01:44:22 84° E 01:48:35 10° NNE
Cosmos 1697 Rocket 4.3 01:41:48 10° WNW 01:45:05 18° W 01:45:05 18° W
Cosmos 1992 Rocket 4.1 01:45:03 53° SSE 01:46:08 68° ESE 01:51:20 10° NNE
Cosmos 1536 3.2 01:42:56 10° N 01:46:31 49° ENE 01:46:48 48° E
Cosmos 1092 Rocket 3.9 01:40:22 10° NNW 01:46:33 84° W 01:48:44 43° S
DELTA 2 DEB (DPAF) 4.1 01:43:07 10° N 01:46:21 50° NW 01:46:21 50° NW
NOSS 3-4 (A) 4.5 01:43:20 10° NW 01:49:27 52° NNE 01:56:40 10° ESE
NOSS 3-4 (C) 4.5 01:43:52 10° NW 01:50:00 52° NNE 01:57:14 10° ESE
Meteor 1-26 Rocket 4.3 01:51:49 42° SSE 01:53:30 63° E 01:58:51 10° NNE
IDEFIX/ARIANE 42P 3.3 01:50:29 10° NNE 01:55:26 43° E 01:57:22 31° SE
Cosmos 1766 3.3 01:54:22 10° N 01:57:04 57° NNE 01:57:04 57° NNE
Cosmos 1953 Rocket 3.5 01:54:33 10° NNW 01:58:59 64° W 01:59:18 61° WSW
Cosmos 2084 Rocket 4.2 01:56:08 10° NW 02:00:14 51° NNE 02:04:22 10° ESE
ATLAS 2AS CENTAUR R/B 3.1 01:57:07 21° WSW 02:01:47 58° NNW 02:08:30 10° NE
Cosmos 1707 3.3 02:03:05 39° NE 02:03:05 39° NE 02:05:16 10° NNE
Cosmos 1980 Rocket 3.3 02:01:30 10° NW 02:06:02 27° WSW 02:06:02 27° WSW
Cosmos 1975 4.0 02:05:37 10° N 02:09:00 35° ENE 02:10:36 23° ESE
Cosmos 44 Rocket 3.6 02:08:21 46° S 02:09:31 59° SE 02:14:37 10° NE
USA 234 3.3 02:06:10 10° ESE 02:12:43 81° NNE 02:19:17 10° WNW
COSMOS 2406 3.5 02:14:30 36° S 02:16:40 59° ESE 02:22:19 10° NE
MSX 4.1 02:11:22 10° NNE 02:17:06 64° ESE 02:19:47 32° S
Cosmos 2369 4.2 02:12:38 10° NW 02:17:51 38° WSW 02:18:30 37° SW
CZ-2D R/B 4.1 02:15:53 10° NE 02:19:51 21° E 02:23:48 10° SE
SL-08 ROCKET BODY 4.3 02:14:42 10° NNW 02:20:42 79° W 02:23:39 32° S
Cosmos 2084 3.6 02:22:01 43° W 02:23:07 61° NW 02:27:14 10° NE
Cosmos 1634 Rocket 3.9 02:20:35 37° SSW 02:23:11 76° WNW 02:29:23 10° N
ADEOS Rocket 4.0 02:15:49 10° NNE 02:23:13 55° E 02:28:49 19° S
Spot 1 4.1 02:20:11 10° N 02:24:14 61° WNW 02:25:03 49° WSW
Cosmos-2242 3.0 02:28:29 51° SW 02:29:16 63° WNW 02:33:26 10° N
Cosmos 724 4.3 02:27:46 37° SW 02:30:21 85° SE 02:36:19 10° NE
Cosmos 1354 Rocket 4.3 02:26:12 10° NNW 02:31:30 67° ENE 02:36:43 10° SE
Cosmos 1503 Rocket 3.9 02:27:35 10° NNW 02:32:55 90° SSW 02:37:00 17° SSE
Cosmos 220 Rocket 4.4 02:32:09 38° SSE 02:33:13 49° ESE 02:37:09 10° NE
Cosmos 2360 Rocket 2.3 02:28:04 10° NNW 02:33:47 80° ENE 02:39:28 10° SE
Cosmos 1607 3.9 02:31:28 35° SSW 02:34:14 75° SE 02:40:30 10° NE
Cosmos 2333 Rocket 2.1 02:29:25 10° NW 02:35:04 68° WSW 02:38:59 20° SSE
FENGYUN 3A 3.9 02:29:57 10° NNE 02:35:23 67° ESE 02:38:13 29° S
Cosmos 1842 2.8 02:35:26 60° SE 02:35:43 65° E 02:38:53 10° NNE
USA 305 4.4 02:38:24 11° ENE 02:38:24 11° ENE 02:38:28 10° ENE
USA 281 3.3 02:38:17 23° S 02:42:21 56° WSW 02:48:50 10° NNW
Cosmos 2082 Rocket 2.6 02:41:13 30° WSW 02:43:58 57° NW 02:49:39 10° NNE
Cosmos 540 Rocket 4.5 02:41:18 20° SSE 02:44:20 39° ESE 02:49:06 10° NE
Cosmos 2221 2.7 02:43:58 32° SSE 02:45:43 63° E 02:49:48 10° NNE
Cosmos 1486 Rocket 4.2 02:42:33 10° NNW 02:47:36 51° WSW 02:49:47 31° SSW
Meteor 2-2 Rocket 4.3 02:45:41 33° SW 02:48:13 63° WNW 02:53:49 10° N
NPP 3.6 02:43:07 10° NNE 02:48:34 85° ESE 02:51:27 29° SSW
Meteor 2-9 Rocket 4.0 02:43:13 10° NNW 02:48:35 81° WSW 02:52:07 22° S
Cosmos 2278 3.7 02:43:02 10° NW 02:48:40 60° WSW 02:52:56 17° S
Resurs 1-4 Rocket 3.3 02:43:55 10° NNE 02:48:50 37° E 02:53:19 12° SSE
Cosmos 2322 Rocket 2.1 02:43:29 10° NNW 02:49:08 78° WSW 02:54:47 10° SSE
BREEZE-M DEB (TANK) 2.8 02:50:13 44° S 02:50:13 44° S 02:54:52 10° E
DNEPR-1 R/B 4.2 02:46:36 10° NW 02:51:43 81° NE 02:57:58 10° SE
Cosmos 2279 Rocket 4.0 02:48:32 29° SSW 02:51:47 68° WNW 02:58:03 10° N
Cosmos 1777 Rocket 4.2 02:53:03 10° NW 02:58:08 49° WSW 03:00:46 26° SSW
ACS3 Solar Sail 2.4 02:53:18 10° N 02:58:55 42° WNW 03:02:06 24° WSW
GP-B 4.4 02:56:03 10° NNW 02:59:36 25° WNW 03:00:35 23° W
Cosmos 1271 Rocket 2.5 03:01:02 38° S 03:02:14 75° ESE 03:05:44 10° NNE
H-2A R/B 3.4 02:58:17 10° NNE 03:02:57 34° E 03:07:42 10° SSE
Cosmos 2219 Rocket 2.2 02:57:23 10° NNW 03:03:04 83° ENE 03:08:43 10° SSE
SL-16 R/B 2.7 02:58:47 10° NW 03:04:00 39° WSW 03:06:38 25° SSW
SL-4 R/B 2.8 03:05:08 29° S 03:05:08 29° S 03:07:42 10° SE
NOSS 3-3 (A) 3.8 03:01:35 29° SW 03:04:30 78° SE 03:10:58 10° NE
Meteor 1-11 Rocket 3.8 02:59:40 10° NNW 03:05:38 87° WSW 03:11:26 10° S
Meteor 1-19 Rocket 4.2 03:04:31 22° S 03:08:11 82° E 03:13:50 10° NNE
Cosmos 1470 2.8 03:06:02 10° NNW 03:09:11 39° W 03:09:29 37° WSW
CZ-4C R/B 2.4 03:06:59 22° WSW 03:09:52 56° NNW 03:15:47 10° NE
NOAA 11 4.2 03:04:32 10° NNE 03:10:00 81° ESE 03:13:49 20° SSW
Cosmos 2180 Rocket 4.5 03:06:54 24° SSW 03:10:44 69° WNW 03:16:57 10° N
Cosmos 2058 Rocket 4.1 03:09:11 25° WSW 03:10:45 32° WNW 03:14:44 10° N
Meteor 1-14 Rocket 4.4 03:05:55 10° NNW 03:11:31 53° W 03:15:07 21° SSW
USA 290 3.5 03:10:18 21° SSE 03:11:46 33° ESE 03:14:40 10° NE
KORONAS-FOTON 4.4 03:11:46 30° W 03:12:22 33° WNW 03:15:27 10° N
Meteor 1-10 Rocket 4.3 03:11:32 18° S 03:15:53 80° E 03:21:44 10° NNE
USA 267 3.7 03:10:31 10° ENE 03:16:53 50° SE 03:21:22 20° SSW
Cosmos 2266 Rocket 4.1 03:13:04 10° NNW 03:19:02 56° W 03:23:39 17° SSW
Gbstr 26 Del rocket 3.3 03:19:26 31° SW 03:19:47 32° SSW 03:23:07 10° SE
NOSS 3-3 (C) 3.8 03:17:53 24° SW 03:21:19 83° SE 03:27:52 10° NE
Cosmos 1536 4.4 03:19:03 10° NW 03:21:19 16° W 03:21:19 16° W
Cosmos 372 Rocket 4.0 03:22:25 10° NNW 03:27:39 84° ENE 03:32:47 10° SSE
Cosmos 1812 Rocket 3.6 03:26:34 23° SSW 03:29:07 64° WNW 03:33:28 10° N
Cosmos 2333 4.3 03:24:12 10° NW 03:29:42 54° WSW 03:35:13 10° S
ISS -1.1 03:29:51 10° SSE 03:30:38 11° SE 03:31:25 10° SE
DMSP B5D2-2 4.1 03:26:09 12° S 03:30:52 57° W 03:36:01 10° NNW
Cosmos 1655 Rocket 3.9 03:28:22 10° NNW 03:34:38 80° W 03:40:50 10° S
IDEFIX/ARIANE 42P 3.4 03:30:07 10° N 03:34:50 37° WNW 03:38:04 18° WSW
Cosmos 1707 4.4 03:34:45 11° WNW 03:35:07 12° WNW 03:36:15 10° NW
BREEZE-M DEB (TANK) 4.3 03:31:26 15° SSW 03:35:12 22° SSE 03:38:11 10° ESE
COSMOS 2441 4.5 03:30:50 10° N 03:35:34 61° WNW 03:38:53 19° SW
JB-3 4.2 03:32:12 10° SSE 03:35:47 75° ENE 03:39:24 10° N
Envisat 3.0 03:32:03 10° NNE 03:37:10 88° WNW 03:41:31 14° SSW
SWARM A 4.2 03:34:26 10° N 03:37:40 62° W 03:39:44 20° SSW
Cosmos 2084 Rocket 3.9 03:35:01 10° WNW 03:38:53 36° SW 03:42:46 10° SSE
Meteor 2-20 Rocket 4.4 03:33:06 11° S 03:39:00 89° ESE 03:44:58 10° NNE
Aureole 1 Rocket 3.1 03:35:16 10° NNW 03:39:15 61° WSW 03:44:14 10° SSE
Meteor 2-4 Rocket 4.0 03:35:03 10° S 03:40:19 62° E 03:45:36 10° NNE
NOSS 3-4 (A) 3.8 03:34:07 10° NW 03:40:38 64° SW 03:48:19 10° SSE
NOSS 3-4 (C) 3.8 03:34:39 10° NW 03:41:12 64° SW 03:48:54 10° SSE
Cosmos 1975 3.9 03:40:55 10° NW 03:43:49 22° W 03:44:51 20° WSW
H-2A R/B 2.3 03:41:22 14° S 03:44:14 47° W 03:47:43 10° NNW
Iridium 4 Rocket 3.5 03:42:31 16° SSW 03:46:12 56° W 03:51:17 10° N
Cosmos 44 Rocket 4.3 03:46:54 13° W 03:51:11 41° NNW 03:56:08 10° NE
ADEOS II 2.2 03:46:06 10° NNE 03:51:22 75° ESE 03:56:35 10° S
Cosmos 1842 Rocket 4.2 03:47:17 10° S 03:51:28 54° E 03:55:43 10° NNE
BREEZE-M DEB (TANK) 3.6 03:49:45 18° WSW 03:51:49 32° SSW 03:58:50 10° SE
Meteor 1-27 Rocket 3.8 03:45:55 10° SSW 03:51:51 85° WNW 03:57:49 10° NNE
BREEZE-M DEB (TANK) 2.4 03:46:56 11° W 03:52:06 76° S 03:54:24 10° E
Cosmos 1238 Rocket 1.9 03:50:21 17° SSW 03:52:27 80° W 03:55:31 10° N
ALOS 2.2 03:48:38 10° NNE 03:53:13 81° WNW 03:57:33 11° SSW
ATLAS 2AS CENTAUR R/B 4.0 03:47:41 10° WNW 03:53:56 35° N 04:00:07 10° ENE
USA 234 3.4 03:49:39 10° SE 03:56:01 53° SW 04:02:25 10° WNW
Cosmos 1763 Rocket 3.7 03:53:11 16° SW 03:57:23 59° WNW 04:02:39 10° NNE
CZ-2D R/B 2.1 03:55:07 10° NNE 04:00:22 75° WNW 04:05:40 10° SSW
Sich 1 3.2 03:56:50 10° N 04:01:01 71° ENE 04:05:08 10° SSE
COSMOS 2406 4.2 03:56:31 13° WSW 04:01:16 37° NW 04:06:35 10° NNE
USA 305 1.0 04:00:35 17° WNW 04:01:54 48° N 04:03:01 10° ENE
Okean 3 Rocket 3.9 03:57:34 10° N 04:02:01 71° ENE 04:06:28 10° SSE
COSMOS 2428 2.9 03:56:36 10° NNW 04:02:22 82° ENE 04:08:05 10° SE
Cosmos 1758 4.3 03:59:08 10° N 04:02:41 46° ENE 04:06:11 10° SSE
Cosmos 841 Rocket 4.2 03:59:51 10° S 04:04:50 52° ESE 04:09:52 10° NNE
SL-16 R/B 2.7 04:00:25 10° SSE 04:06:41 83° ENE 04:13:00 10° NNW
ADEOS Rocket 4.0 04:01:31 10° N 04:08:32 47° WNW 04:15:45 10° SW
Cosmos 1898 Rocket 3.5 04:03:55 10° NNW 04:09:02 63° WSW 04:14:07 10° S
Cosmos 1805 Rocket 4.4 04:06:26 10° N 04:10:47 54° ENE 04:15:05 10° SSE
Cosmos 1937 Rocket 3.4 04:08:16 10° NNW 04:13:30 76° WSW 04:18:38 10° SSE
Cosmos 2360 Rocket 3.3 04:12:53 10° NW 04:17:09 22° WSW 04:21:26 10° SSW
Cosmos 2333 Rocket 3.9 04:15:38 10° WNW 04:18:19 14° W 04:20:55 10° SW
H-2A R/B 2.8 04:16:34 10° NNE 04:20:30 48° E 04:24:21 10° S
SL-19 R/B 4.4 04:16:40 10° NNE 04:22:16 70° WNW 04:28:09 10° SSW
Cosmos 2221 4.2 04:20:19 10° WSW 04:23:10 18° WNW 04:26:02 10° NNW
Meteor 2-10 Rocket 3.5 04:18:51 10° NNW 04:23:53 62° W 04:29:03 10° S
Cosmos 540 Rocket 4.1 04:21:00 10° SW 04:25:48 41° NW 04:30:43 10° NNE
Meteor 1-18 Rocket 4.4 04:20:21 10° S 04:25:54 79° E 04:31:28 10° NNE
Resurs 1-4 Rocket 2.7 04:23:41 10° N 04:28:42 44° WNW 04:33:40 10° SW
Cosmos 2082 Rocket 4.1 04:25:08 10° WNW 04:29:18 20° NNW 04:33:29 10° NNE
Cosmos 1340 Rocket 4.2 04:26:46 10° N 04:30:21 42° ENE 04:33:56 10° SE
Cosmos 2322 Rocket 3.7 04:28:56 10° WNW 04:32:16 16° W 04:35:36 10° SW
Cosmos 468 Rocket 4.3 04:27:07 10° SW 04:32:19 58° WNW 04:37:35 10° NNE
Cosmos 1553 Rocket 4.0 04:27:21 10° SSW 04:33:34 78° WNW 04:39:55 10° N
CZ-2C R/B 3.6 04:29:55 10° NNE 04:34:36 43° E 04:39:06 10° S
Cosmos 1709 Rocket 4.3 04:33:35 10° N 04:39:43 75° ENE 04:45:50 10° SSE
ACS3 Solar Sail 3.8 04:38:03 10° NNW 04:39:52 11° NW 04:41:41 10° WNW
BREEZE-M DEB (TANK) 3.9 04:34:22 10° WNW 04:43:00 32° SW 04:46:16 10° SSE
